Time,TemperatureF,DewpointF,PressureIn,WindDirection,WindDirectionDegrees,WindSpeedMPH,WindSpeedGustMPH,Humidity,HourlyPrecipIn,Conditions,Clouds,dailyrainin,SoftwareType,DateUTC
2013-06-19 00:01:00,59.7,59.2,29.88,NNW,340,6.0,9.0,98,0.02,,,0.13,meteohub,2013-06-19 04:01:00,
2013-06-19 00:06:00,59.7,59.2,29.88,NNW,342,9.0,9.0,98,0.02,,,0.00,meteohub,2013-06-19 04:06:00,
2013-06-19 00:11:00,59.5,59.0,29.88,NNW,342,5.0,11.0,98,0.01,,,0.00,meteohub,2013-06-19 04:11:00,
2013-06-19 00:16:00,59.5,59.0,29.88,NNW,348,4.0,11.0,98,0.01,,,0.00,meteohub,2013-06-19 04:16:00,
2013-06-19 00:21:00,59.5,59.0,29.88,North,349,5.0,11.0,98,0.01,,,0.00,meteohub,2013-06-19 04:21:00,
2013-06-19 00:26:00,59.4,58.8,29.88,North,349,4.0,11.0,98,0.01,,,0.00,meteohub,2013-06-19 04:26:00,
2013-06-19 00:31:00,59.4,58.8,29.88,NNE,25,6.0,11.0,98,0.01,,,0.00,meteohub,2013-06-19 04:31:00,
2013-06-19 00:36:00,59.2,58.6,29.88,NW,305,6.0,11.0,98,0.01,,,0.00,meteohub,2013-06-19 04:36:00,
2013-06-19 00:41:00,59.2,58.6,29.88,North,352,9.0,11.0,98,0.01,,,0.00,meteohub,2013-06-19 04:41:00,
2013-06-19 00:46:00,59.2,58.6,29.88,NNW,336,8.0,11.0,98,0.01,,,0.00,meteohub,2013-06-19 04:46:00,
2013-06-19 00:52:00,59.2,58.6,29.87,North,1,5.0,11.0,98,0.01,,,0.00,meteohub,2013-06-19 04:52:00,
2013-06-19 00:57:00,59.2,58.6,29.87,NNE,17,13.0,13.0,98,0.00,,,0.00,meteohub,2013-06-19 04:57:00,
2013-06-19 01:02:00,59.2,58.6,29.87,NW,321,4.0,13.0,98,0.00,,,0.00,meteohub,2013-06-19 05:02:00,
2013-06-19 01:07:00,59.2,58.6,29.87,NNE,13,6.0,13.0,98,0.00,,,0.00,meteohub,2013-06-19 05:07:00,
2013-06-19 01:12:00,59.0,58.5,29.87,NNE,12,4.0,13.0,98,0.00,,,0.00,meteohub,2013-06-19 05:12:00,
2013-06-19 01:17:00,59.0,58.5,29.87,NNW,335,6.0,11.0,98,0.00,,,0.00,meteohub,2013-06-19 05:17:00,
2013-06-19 01:22:00,59.0,58.5,29.87,NNW,328,5.0,11.0,98,0.01,,,0.01,meteohub,2013-06-19 05:22:00,
2013-06-19 01:27:00,59.0,58.5,29.87,North,4,4.0,11.0,98,0.01,,,0.01,meteohub,2013-06-19 05:27:00,
2013-06-19 01:32:00,59.0,58.5,29.87,NNE,25,9.0,12.0,98,0.01,,,0.01,meteohub,2013-06-19 05:32:00,
2013-06-19 01:37:00,59.0,58.5,29.87,NW,322,9.0,14.0,98,0.01,,,0.01,meteohub,2013-06-19 05:37:00,
2013-06-19 01:42:00,59.0,58.5,29.87,NNW,330,7.0,14.0,98,0.01,,,0.01,meteohub,2013-06-19 05:42:00,
2013-06-19 01:47:00,59.0,58.5,29.87,NNW,340,4.0,14.0,98,0.01,,,0.01,meteohub,2013-06-19 05:47:00,
2013-06-19 01:52:00,59.0,58.5,29.87,NNE,20,8.0,13.0,98,0.01,,,0.01,meteohub,2013-06-19 05:52:00,
2013-06-19 01:57:00,59.0,58.5,29.88,NNW,330,6.0,12.0,98,0.01,,,0.01,meteohub,2013-06-19 05:57:00,
2013-06-19 02:02:00,59.0,58.5,29.88,NW,312,3.0,12.0,98,0.01,,,0.01,meteohub,2013-06-19 06:02:00,
2013-06-19 02:07:00,58.8,58.3,29.88,North,11,5.0,12.0,98,0.01,,,0.01,meteohub,2013-06-19 06:07:00,
2013-06-19 02:12:00,58.8,58.3,29.88,North,356,5.0,15.0,98,0.01,,,0.01,meteohub,2013-06-19 06:12:00,
2013-06-19 02:17:00,58.8,58.3,29.88,North,359,7.0,15.0,98,0.00,,,0.01,meteohub,2013-06-19 06:17:00,
2013-06-19 02:22:00,58.6,58.1,29.88,NNE,16,10.0,15.0,98,0.00,,,0.01,meteohub,2013-06-19 06:22:00,
2013-06-19 02:27:00,58.6,58.1,29.88,North,11,6.0,17.0,98,0.00,,,0.01,meteohub,2013-06-19 06:27:00,
2013-06-19 02:32:00,58.6,58.1,29.88,North,350,10.0,17.0,98,0.00,,,0.01,meteohub,2013-06-19 06:32:00,
2013-06-19 02:37:00,58.6,57.7,29.88,NNE,20,8.0,17.0,97,0.00,,,0.01,meteohub,2013-06-19 06:37:00,
2013-06-19 02:42:00,58.5,57.6,29.88,NNE,13,4.0,14.0,97,0.00,,,0.01,meteohub,2013-06-19 06:42:00,
2013-06-19 02:47:00,58.5,57.6,29.88,North,359,5.0,14.0,97,0.00,,,0.01,meteohub,2013-06-19 06:47:00,
2013-06-19 02:52:00,58.5,57.6,29.88,NNE,29,7.0,16.0,97,0.00,,,0.01,meteohub,2013-06-19 06:52:00,
2013-06-19 02:57:00,58.6,57.7,29.88,NNE,20,5.0,16.0,97,0.00,,,0.01,meteohub,2013-06-19 06:57:00,
2013-06-19 03:02:00,58.5,57.6,29.88,NNE,25,5.0,16.0,97,0.00,,,0.01,meteohub,2013-06-19 07:02:00,
2013-06-19 03:07:00,58.5,57.6,29.88,NNE,29,2.0,14.0,97,0.00,,,0.01,meteohub,2013-06-19 07:07:00,
2013-06-19 03:12:00,58.5,57.6,29.88,NNW,338,5.0,14.0,97,0.00,,,0.01,meteohub,2013-06-19 07:12:00,
2013-06-19 03:17:00,58.5,57.6,29.88,NNW,340,4.0,11.0,97,0.00,,,0.01,meteohub,2013-06-19 07:17:00,
2013-06-19 03:22:00,58.5,57.6,29.88,NNE,15,6.0,17.0,97,0.00,,,0.01,meteohub,2013-06-19 07:22:00,
2013-06-19 03:27:00,58.5,57.4,29.88,NW,320,6.0,17.0,96,0.00,,,0.01,meteohub,2013-06-19 07:27:00,
2013-06-19 03:32:00,58.5,57.4,29.88,NNW,342,7.0,17.0,96,0.00,,,0.01,meteohub,2013-06-19 07:32:00,
2013-06-19 03:37:00,58.5,57.4,29.88,NNW,327,6.0,12.0,96,0.00,,,0.01,meteohub,2013-06-19 07:37:00,
2013-06-19 03:42:00,58.5,57.4,29.88,NNW,333,4.0,13.0,96,0.00,,,0.01,meteohub,2013-06-19 07:42:00,
2013-06-19 03:47:00,58.5,57.4,29.88,NE,34,7.0,13.0,96,0.00,,,0.01,meteohub,2013-06-19 07:47:00,
2013-06-19 03:52:00,58.5,57.4,29.88,NNW,340,6.0,13.0,96,0.00,,,0.01,meteohub,2013-06-19 07:52:00,
2013-06-19 03:57:00,58.3,57.2,29.88,NNE,15,7.0,13.0,96,0.00,,,0.01,meteohub,2013-06-19 07:57:00,
2013-06-19 04:02:00,58.3,57.2,29.88,North,5,6.0,15.0,96,0.00,,,0.01,meteohub,2013-06-19 08:02:00,
2013-06-19 04:07:00,58.3,56.8,29.88,NW,324,4.0,15.0,95,0.00,,,0.01,meteohub,2013-06-19 08:07:00,
2013-06-19 04:12:00,58.1,56.7,29.89,North,9,5.0,15.0,95,0.00,,,0.01,meteohub,2013-06-19 08:12:00,
2013-06-19 04:17:00,57.9,56.8,29.89,North,349,6.0,12.0,96,0.00,,,0.01,meteohub,2013-06-19 08:17:00,
2013-06-19 04:22:00,57.9,56.8,29.89,North,356,6.0,12.0,96,0.00,,,0.01,meteohub,2013-06-19 08:22:00,
2013-06-19 04:27:00,57.9,56.8,29.89,NNW,345,8.0,12.0,96,0.00,,,0.01,meteohub,2013-06-19 08:27:00,
2013-06-19 04:32:00,57.7,56.7,29.89,NNW,348,7.0,12.0,96,0.00,,,0.01,meteohub,2013-06-19 08:32:00,
2013-06-19 04:37:00,57.7,56.3,29.89,NNW,327,7.0,13.0,95,0.00,,,0.01,meteohub,2013-06-19 08:37:00,
2013-06-19 04:42:00,57.7,56.3,29.89,NNE,15,6.0,13.0,95,0.00,,,0.01,meteohub,2013-06-19 08:42:00,
2013-06-19 04:47:00,57.6,56.1,29.89,NNW,342,9.0,14.0,95,0.00,,,0.01,meteohub,2013-06-19 08:47:00,
2013-06-19 04:52:00,57.6,56.1,29.89,NNW,337,5.0,14.0,95,0.00,,,0.01,meteohub,2013-06-19 08:52:00,
2013-06-19 04:57:00,57.6,56.1,29.89,NW,319,6.0,14.0,95,0.00,,,0.01,meteohub,2013-06-19 08:57:00,
2013-06-19 05:02:00,57.6,55.8,29.89,NNW,338,4.0,14.0,94,0.00,,,0.01,meteohub,2013-06-19 09:02:00,
2013-06-19 05:07:00,57.6,55.8,29.89,NNW,347,4.0,13.0,94,0.00,,,0.01,meteohub,2013-06-19 09:07:00,
2013-06-19 05:12:00,57.6,55.8,29.89,NW,315,2.0,11.0,94,0.00,,,0.01,meteohub,2013-06-19 09:12:00,
2013-06-19 05:17:00,57.4,55.6,29.90,North,352,4.0,11.0,94,0.00,,,0.01,meteohub,2013-06-19 09:17:00,
2013-06-19 05:22:00,57.4,55.6,29.90,NNE,13,6.0,12.0,94,0.00,,,0.01,meteohub,2013-06-19 09:22:00,
2013-06-19 05:27:00,57.2,55.4,29.90,NNE,33,7.0,12.0,94,0.00,,,0.01,meteohub,2013-06-19 09:27:00,
2013-06-19 05:32:00,57.2,55.4,29.90,NW,304,7.0,12.0,94,0.00,,,0.01,meteohub,2013-06-19 09:32:00,
2013-06-19 05:37:00,57.0,55.0,29.90,North,352,10.0,12.0,93,0.00,,,0.01,meteohub,2013-06-19 09:37:00,
2013-06-19 05:42:00,57.0,54.7,29.90,NNW,330,4.0,12.0,92,0.00,,,0.01,meteohub,2013-06-19 09:42:00,
2013-06-19 05:47:00,57.0,54.7,29.90,North,0,9.0,16.0,92,0.00,,,0.01,meteohub,2013-06-19 09:47:00,
2013-06-19 05:52:00,57.0,54.5,29.90,NNW,328,4.0,16.0,91,0.00,,,0.01,meteohub,2013-06-19 09:52:00,
2013-06-19 05:57:00,57.0,54.5,29.90,NNW,339,6.0,13.0,91,0.00,,,0.01,meteohub,2013-06-19 09:57:00,
2013-06-19 06:02:00,57.0,54.5,29.90,NNE,23,11.0,14.0,91,0.00,,,0.01,meteohub,2013-06-19 10:02:00,
2013-06-19 06:07:00,57.0,54.1,29.91,North,5,7.0,14.0,90,0.00,,,0.01,meteohub,2013-06-19 10:07:00,
2013-06-19 06:12:00,57.2,54.3,29.91,NW,325,3.0,14.0,90,0.00,,,0.01,meteohub,2013-06-19 10:12:00,
2013-06-19 06:17:00,57.2,54.3,29.91,NNW,330,7.0,13.0,90,0.00,,,0.01,meteohub,2013-06-19 10:17:00,
2013-06-19 06:22:00,57.2,54.3,29.91,North,1,7.0,11.0,90,0.00,,,0.01,meteohub,2013-06-19 10:22:00,
2013-06-19 06:27:00,57.0,54.1,29.91,North,352,5.0,11.0,90,0.00,,,0.01,meteohub,2013-06-19 10:27:00,
2013-06-19 06:32:00,57.0,54.1,29.91,North,6,4.0,11.0,90,0.00,,,0.01,meteohub,2013-06-19 10:32:00,
2013-06-19 06:36:00,57.0,53.8,29.92,NNW,342,4.0,11.0,89,0.00,,,0.01,meteohub,2013-06-19 10:36:00,
2013-06-19 06:42:00,57.2,54.0,29.92,NNW,346,3.0,9.0,89,0.00,,,0.01,meteohub,2013-06-19 10:42:00,
2013-06-19 06:47:00,57.4,54.1,29.92,NW,323,4.0,9.0,89,0.00,,,0.01,meteohub,2013-06-19 10:47:00,
2013-06-19 06:52:00,57.6,54.0,29.92,NE,41,7.0,10.0,88,0.00,,,0.01,meteohub,2013-06-19 10:52:00,
2013-06-19 06:57:00,57.9,54.3,29.92,NNE,13,9.0,12.0,88,0.00,,,0.01,meteohub,2013-06-19 10:57:00,
2013-06-19 07:02:00,58.1,54.3,29.92,North,8,6.0,12.0,87,0.00,,,0.01,meteohub,2013-06-19 11:02:00,
2013-06-19 07:07:00,58.3,54.5,29.93,NNW,335,6.0,14.0,87,0.00,,,0.01,meteohub,2013-06-19 11:07:00,
2013-06-19 07:12:00,58.5,54.3,29.93,NE,40,4.0,14.0,86,0.00,,,0.01,meteohub,2013-06-19 11:12:00,
2013-06-19 07:17:00,58.8,55.0,29.94,North,6,4.0,11.0,87,0.00,,,0.01,meteohub,2013-06-19 11:17:00,
2013-06-19 07:22:00,59.2,55.0,29.94,North,354,7.0,10.0,86,0.00,,,0.01,meteohub,2013-06-19 11:22:00,
2013-06-19 07:27:00,59.4,55.2,29.94,NE,36,7.0,12.0,86,0.00,,,0.01,meteohub,2013-06-19 11:27:00,
2013-06-19 07:32:00,59.7,55.2,29.94,NE,34,5.0,12.0,85,0.00,,,0.01,meteohub,2013-06-19 11:32:00,
2013-06-19 07:37:00,59.9,55.8,29.95,North,9,5.0,13.0,86,0.00,,,0.01,meteohub,2013-06-19 11:37:00,
2013-06-19 07:42:00,60.1,55.9,29.95,NNE,27,4.0,13.0,86,0.00,,,0.01,meteohub,2013-06-19 11:42:00,
2013-06-19 07:47:00,60.1,55.9,29.95,NNW,346,5.0,11.0,86,0.00,,,0.01,meteohub,2013-06-19 11:47:00,
2013-06-19 07:52:00,60.3,56.1,29.95,East,79,2.0,11.0,86,0.00,,,0.01,meteohub,2013-06-19 11:52:00,
2013-06-19 07:57:00,60.4,55.9,29.96,NNW,340,4.0,11.0,85,0.00,,,0.01,meteohub,2013-06-19 11:57:00,
2013-06-19 08:02:00,60.4,55.9,29.96,NNW,338,3.0,12.0,85,0.00,,,0.01,meteohub,2013-06-19 12:02:00,
2013-06-19 08:07:00,61.2,56.7,29.96,NNE,20,5.0,12.0,85,0.00,,,0.01,meteohub,2013-06-19 12:07:00,
2013-06-19 08:12:00,61.3,56.1,29.96,WNW,298,4.0,12.0,83,0.00,,,0.01,meteohub,2013-06-19 12:12:00,
2013-06-19 08:17:00,61.5,55.6,29.96,NNE,18,10.0,13.0,81,0.00,,,0.01,meteohub,2013-06-19 12:17:00,
2013-06-19 08:22:00,61.5,55.6,29.96,ENE,72,11.0,13.0,81,0.00,,,0.01,meteohub,2013-06-19 12:22:00,
2013-06-19 08:27:00,61.9,55.9,29.97,NNW,346,5.0,14.0,81,0.00,,,0.01,meteohub,2013-06-19 12:27:00,
2013-06-19 08:32:00,61.9,55.9,29.97,NNE,15,5.0,14.0,81,0.00,,,0.01,meteohub,2013-06-19 12:32:00,
2013-06-19 08:37:00,62.2,55.9,29.97,NNE,33,14.0,14.0,80,0.00,,,0.01,meteohub,2013-06-19 12:37:00,
2013-06-19 08:42:00,62.6,56.7,29.98,NE,41,6.0,14.0,81,0.00,,,0.01,meteohub,2013-06-19 12:42:00,
2013-06-19 08:47:00,63.3,57.4,29.98,NE,34,0.0,14.0,81,0.00,,,0.01,meteohub,2013-06-19 12:47:00,
2013-06-19 08:52:00,64.0,57.4,29.98,NNE,18,6.0,14.0,79,0.00,,,0.01,meteohub,2013-06-19 12:52:00,
2013-06-19 08:57:00,63.7,57.0,29.98,NNE,23,4.0,12.0,79,0.00,,,0.01,meteohub,2013-06-19 12:57:00,
2013-06-19 09:02:00,63.7,57.4,29.98,NE,41,5.0,12.0,80,0.00,,,0.01,meteohub,2013-06-19 13:02:00,
2013-06-19 09:07:00,63.9,57.6,29.98,North,356,10.0,12.0,80,0.00,,,0.01,meteohub,2013-06-19 13:07:00,
2013-06-19 09:12:00,64.2,57.6,29.98,NE,35,7.0,12.0,79,0.00,,,0.01,meteohub,2013-06-19 13:12:00,
2013-06-19 09:17:00,64.0,57.4,29.98,North,352,6.0,12.0,79,0.00,,,0.01,meteohub,2013-06-19 13:17:00,
2013-06-19 09:22:00,64.2,56.8,29.99,NNW,330,5.0,12.0,77,0.00,,,0.01,meteohub,2013-06-19 13:22:00,
2013-06-19 09:27:00,64.6,57.6,29.99,NNW,346,4.0,12.0,78,0.00,,,0.01,meteohub,2013-06-19 13:27:00,
2013-06-19 09:32:00,65.1,57.7,29.99,North,11,5.0,12.0,77,0.00,,,0.01,meteohub,2013-06-19 13:32:00,
2013-06-19 09:37:00,65.3,57.6,29.99,North,353,4.0,12.0,76,0.00,,,0.01,meteohub,2013-06-19 13:37:00,
2013-06-19 09:42:00,65.7,57.9,29.99,WNW,284,2.0,11.0,76,0.00,,,0.01,meteohub,2013-06-19 13:42:00,
2013-06-19 09:47:00,66.0,57.9,29.99,ENE,58,2.0,11.0,75,0.00,,,0.01,meteohub,2013-06-19 13:47:00,
2013-06-19 09:52:00,66.0,57.6,29.99,NE,37,3.0,11.0,74,0.00,,,0.01,meteohub,2013-06-19 13:52:00,
2013-06-19 09:57:00,66.4,57.9,29.99,NNW,336,4.0,14.0,74,0.00,,,0.01,meteohub,2013-06-19 13:57:00,
2013-06-19 10:02:00,66.0,57.2,29.99,NE,55,10.0,14.0,73,0.00,,,0.01,meteohub,2013-06-19 14:02:00,
2013-06-19 10:07:00,66.0,57.6,29.99,North,355,4.0,14.0,74,0.00,,,0.01,meteohub,2013-06-19 14:07:00,
2013-06-19 10:12:00,66.6,57.6,30.00,NNE,25,13.0,14.0,73,0.00,,,0.01,meteohub,2013-06-19 14:12:00,
2013-06-19 10:17:00,66.6,58.1,30.00,NE,43,15.0,16.0,74,0.00,,,0.01,meteohub,2013-06-19 14:17:00,
2013-06-19 10:22:00,66.6,57.2,30.00,ENE,72,4.0,16.0,72,0.00,,,0.01,meteohub,2013-06-19 14:22:00,
2013-06-19 10:27:00,66.7,57.0,30.00,NNE,33,12.0,16.0,71,0.00,,,0.01,meteohub,2013-06-19 14:27:00,
2013-06-19 10:32:00,66.9,57.2,30.00,ENE,77,2.0,16.0,71,0.00,,,0.01,meteohub,2013-06-19 14:32:00,
2013-06-19 10:37:00,67.5,57.4,30.00,NNW,333,8.0,14.0,70,0.00,,,0.01,meteohub,2013-06-19 14:37:00,
2013-06-19 10:42:00,67.8,57.7,30.00,NE,37,5.0,14.0,70,0.00,,,0.01,meteohub,2013-06-19 14:42:00,
2013-06-19 10:47:00,68.2,57.2,30.00,North,350,6.0,14.0,68,0.00,,,0.01,meteohub,2013-06-19 14:47:00,
2013-06-19 10:52:00,68.2,57.2,30.00,NNW,340,5.0,12.0,68,0.00,,,0.01,meteohub,2013-06-19 14:52:00,
2013-06-19 10:57:00,68.0,57.0,30.00,NNE,33,6.0,13.0,68,0.00,,,0.01,meteohub,2013-06-19 14:57:00,
2013-06-19 11:02:00,68.2,57.2,30.01,NNE,15,13.0,17.0,68,0.00,,,0.01,meteohub,2013-06-19 15:02:00,
2013-06-19 11:07:00,68.4,57.0,30.00,NE,37,10.0,17.0,67,0.00,,,0.01,meteohub,2013-06-19 15:07:00,
2013-06-19 11:12:00,68.4,56.5,30.00,ENE,57,8.0,16.0,66,0.00,,,0.01,meteohub,2013-06-19 15:12:00,
2013-06-19 11:17:00,68.4,56.1,30.01,NNE,17,17.0,17.0,65,0.00,,,0.01,meteohub,2013-06-19 15:17:00,
2013-06-19 11:22:00,68.5,57.2,30.01,NNE,18,10.0,19.0,67,0.00,,,0.01,meteohub,2013-06-19 15:22:00,
2013-06-19 11:27:00,68.5,56.3,30.01,NNE,21,7.0,19.0,65,0.00,,,0.01,meteohub,2013-06-19 15:27:00,
2013-06-19 11:32:00,68.7,56.1,30.01,NE,56,6.0,19.0,64,0.00,,,0.01,meteohub,2013-06-19 15:32:00,
2013-06-19 11:37:00,68.9,56.7,30.01,NNE,18,12.0,17.0,65,0.00,,,0.01,meteohub,2013-06-19 15:37:00,
2013-06-19 11:42:00,68.7,56.1,30.01,East,91,3.0,16.0,64,0.00,,,0.01,meteohub,2013-06-19 15:42:00,
2013-06-19 11:47:00,69.1,56.5,30.01,East,90,6.0,15.0,64,0.00,,,0.01,meteohub,2013-06-19 15:47:00,
2013-06-19 11:52:00,69.3,56.1,30.01,NNE,26,9.0,16.0,63,0.00,,,0.01,meteohub,2013-06-19 15:52:00,
2013-06-19 11:57:00,69.6,55.9,30.01,NE,54,10.0,16.0,62,0.00,,,0.01,meteohub,2013-06-19 15:57:00,
2013-06-19 12:02:00,69.6,56.5,30.01,NE,41,9.0,16.0,63,0.00,,,0.01,meteohub,2013-06-19 16:02:00,
2013-06-19 12:07:00,70.2,56.1,30.01,North,358,10.0,15.0,61,0.00,,,0.01,meteohub,2013-06-19 16:07:00,
2013-06-19 12:12:00,70.0,55.4,30.01,NNE,19,8.0,18.0,60,0.00,,,0.01,meteohub,2013-06-19 16:12:00,
2013-06-19 12:17:00,70.5,55.9,30.01,NNE,25,13.0,18.0,60,0.00,,,0.01,meteohub,2013-06-19 16:17:00,
2013-06-19 12:22:00,70.3,56.3,30.01,NNE,30,13.0,18.0,61,0.00,,,0.01,meteohub,2013-06-19 16:22:00,
2013-06-19 12:27:00,70.3,55.4,30.01,NNE,30,14.0,16.0,59,0.00,,,0.01,meteohub,2013-06-19 16:27:00,
2013-06-19 12:32:00,70.5,55.0,30.01,North,349,17.0,17.0,58,0.00,,,0.01,meteohub,2013-06-19 16:32:00,
2013-06-19 12:37:00,70.9,55.4,30.01,North,356,8.0,17.0,58,0.00,,,0.01,meteohub,2013-06-19 16:37:00,
2013-06-19 12:42:00,71.1,53.6,30.01,NNW,332,10.0,17.0,54,0.00,,,0.01,meteohub,2013-06-19 16:42:00,
2013-06-19 12:47:00,71.2,55.2,30.01,WSW,240,1.0,17.0,57,0.00,,,0.01,meteohub,2013-06-19 16:47:00,
2013-06-19 12:52:00,71.2,55.8,30.01,NW,312,2.0,13.0,58,0.00,,,0.01,meteohub,2013-06-19 16:52:00,
2013-06-19 12:57:00,71.8,56.7,30.01,NE,45,4.0,11.0,59,0.00,,,0.01,meteohub,2013-06-19 16:57:00,
2013-06-19 13:02:00,71.4,54.9,30.01,NNW,348,5.0,11.0,56,0.00,,,0.01,meteohub,2013-06-19 17:02:00,
2013-06-19 13:07:00,71.2,55.8,30.01,NE,37,5.0,11.0,58,0.00,,,0.01,meteohub,2013-06-19 17:07:00,
2013-06-19 13:12:00,71.6,55.6,30.01,ENE,78,5.0,15.0,57,0.00,,,0.01,meteohub,2013-06-19 17:12:00,
2013-06-19 13:17:00,71.8,55.2,30.01,SE,129,2.0,15.0,56,0.00,,,0.01,meteohub,2013-06-19 17:17:00,
2013-06-19 13:22:00,72.7,55.0,30.01,NNE,20,7.0,15.0,54,0.00,,,0.01,meteohub,2013-06-19 17:22:00,
2013-06-19 13:27:00,71.8,54.3,30.01,ENE,70,5.0,15.0,54,0.00,,,0.01,meteohub,2013-06-19 17:27:00,
2013-06-19 13:32:00,72.0,54.3,30.01,NNW,348,1.0,12.0,54,0.00,,,0.01,meteohub,2013-06-19 17:32:00,
2013-06-19 13:37:00,72.1,54.1,30.01,NNE,29,4.0,15.0,53,0.00,,,0.01,meteohub,2013-06-19 17:37:00,
2013-06-19 13:42:00,71.8,53.8,30.01,North,358,9.0,15.0,53,0.00,,,0.01,meteohub,2013-06-19 17:42:00,
2013-06-19 13:47:00,72.0,52.9,30.01,NNE,30,8.0,11.0,51,0.00,,,0.01,meteohub,2013-06-19 17:47:00,
2013-06-19 13:52:00,71.4,52.9,30.01,NE,49,8.0,15.0,52,0.00,,,0.01,meteohub,2013-06-19 17:52:00,
2013-06-19 13:57:00,71.1,53.1,30.02,East,80,2.0,15.0,53,0.00,,,0.01,meteohub,2013-06-19 17:57:00,
2013-06-19 14:02:00,71.6,53.6,30.01,NW,325,5.0,15.0,53,0.00,,,0.01,meteohub,2013-06-19 18:02:00,
2013-06-19 14:07:00,72.0,53.4,30.02,NNE,20,10.0,10.0,52,0.00,,,0.01,meteohub,2013-06-19 18:07:00,
2013-06-19 14:12:00,71.8,53.2,30.02,NNW,342,3.0,14.0,52,0.00,,,0.01,meteohub,2013-06-19 18:12:00,
2013-06-19 14:17:00,71.4,52.9,30.02,NNW,342,4.0,14.0,52,0.00,,,0.01,meteohub,2013-06-19 18:17:00,
2013-06-19 14:22:00,71.2,53.8,30.02,NNW,334,4.0,12.0,54,0.00,,,0.01,meteohub,2013-06-19 18:22:00,
2013-06-19 14:27:00,72.0,54.3,30.02,North,349,1.0,12.0,54,0.00,,,0.01,meteohub,2013-06-19 18:27:00,
2013-06-19 14:32:00,72.3,53.8,30.02,ENE,74,3.0,12.0,52,0.00,,,0.01,meteohub,2013-06-19 18:32:00,
2013-06-19 14:37:00,72.3,53.8,30.03,NE,44,4.0,11.0,52,0.00,,,0.01,meteohub,2013-06-19 18:37:00,
2013-06-19 14:42:00,72.0,52.9,30.03,ENE,78,4.0,12.0,51,0.00,,,0.01,meteohub,2013-06-19 18:42:00,
2013-06-19 14:47:00,72.3,53.2,30.03,NNW,344,3.0,12.0,51,0.00,,,0.01,meteohub,2013-06-19 18:47:00,
2013-06-19 14:52:00,72.0,52.3,30.03,East,83,3.0,10.0,50,0.00,,,0.01,meteohub,2013-06-19 18:52:00,
2013-06-19 14:57:00,72.3,53.8,30.03,West,280,0.0,10.0,52,0.00,,,0.01,meteohub,2013-06-19 18:57:00,
2013-06-19 15:02:00,73.2,52.9,30.03,NE,37,2.0,9.0,49,0.00,,,0.01,meteohub,2013-06-19 19:02:00,
2013-06-19 15:07:00,73.9,53.1,30.04,ENE,74,2.0,9.0,48,0.00,,,0.01,meteohub,2013-06-19 19:07:00,
2013-06-19 15:12:00,73.8,53.4,30.04,NNE,26,5.0,7.0,49,0.00,,,0.01,meteohub,2013-06-19 19:12:00,
2013-06-19 15:17:00,73.8,53.4,30.04,ENE,57,1.0,10.0,49,0.00,,,0.01,meteohub,2013-06-19 19:17:00,
2013-06-19 15:22:00,74.3,52.7,30.04,ENE,76,9.0,10.0,47,0.00,,,0.01,meteohub,2013-06-19 19:22:00,
2013-06-19 15:27:00,72.1,57.6,30.04,East,98,2.0,10.0,60,0.00,,,0.01,meteohub,2013-06-19 19:27:00,
2013-06-19 15:32:00,71.1,57.7,30.04,SE,132,5.0,10.0,63,0.00,,,0.01,meteohub,2013-06-19 19:32:00,
2013-06-19 15:37:00,71.1,57.4,30.04,SSW,210,5.0,10.0,62,0.00,,,0.01,meteohub,2013-06-19 19:37:00,
2013-06-19 15:42:00,71.1,57.4,30.04,SSW,205,7.0,8.0,62,0.00,,,0.01,meteohub,2013-06-19 19:42:00,
2013-06-19 15:48:00,70.9,57.7,30.04,South,169,10.0,11.0,63,0.00,,,0.01,meteohub,2013-06-19 19:48:00,
2013-06-19 15:52:00,70.2,57.0,30.04,SSE,167,10.0,13.0,63,0.00,,,0.01,meteohub,2013-06-19 19:52:00,
2013-06-19 15:58:00,70.0,56.8,30.05,South,184,10.0,13.0,63,0.00,,,0.01,meteohub,2013-06-19 19:58:00,
2013-06-19 16:03:00,70.0,57.2,30.05,SW,219,8.0,13.0,64,0.00,,,0.01,meteohub,2013-06-19 20:03:00,
2013-06-19 16:08:00,69.3,57.4,30.05,SSW,211,10.0,11.0,66,0.00,,,0.01,meteohub,2013-06-19 20:08:00,
2013-06-19 16:13:00,69.4,57.2,30.05,South,187,6.0,13.0,65,0.00,,,0.01,meteohub,2013-06-19 20:13:00,
2013-06-19 16:18:00,69.6,58.1,30.05,SW,215,10.0,13.0,67,0.00,,,0.01,meteohub,2013-06-19 20:18:00,
2013-06-19 16:23:00,68.5,56.7,30.05,SW,222,11.0,12.0,66,0.00,,,0.01,meteohub,2013-06-19 20:23:00,
2013-06-19 16:28:00,68.2,57.6,30.05,SSW,197,9.0,13.0,69,0.00,,,0.01,meteohub,2013-06-19 20:28:00,
2013-06-19 16:33:00,68.2,58.1,30.06,SSW,212,8.0,13.0,70,0.00,,,0.01,meteohub,2013-06-19 20:33:00,
2013-06-19 16:38:00,67.6,57.6,30.06,SW,225,11.0,13.0,70,0.00,,,0.01,meteohub,2013-06-19 20:38:00,
2013-06-19 16:43:00,67.3,57.6,30.05,SW,218,10.0,13.0,71,0.00,,,0.01,meteohub,2013-06-19 20:43:00,
2013-06-19 16:48:00,67.6,57.6,30.06,SSW,212,10.0,13.0,70,0.00,,,0.01,meteohub,2013-06-19 20:48:00,
2013-06-19 16:53:00,67.8,56.5,30.06,South,184,6.0,13.0,67,0.00,,,0.01,meteohub,2013-06-19 20:53:00,
2013-06-19 16:58:00,67.8,57.2,30.06,SSW,198,6.0,11.0,69,0.00,,,0.01,meteohub,2013-06-19 20:58:00,
2013-06-19 17:03:00,67.8,58.1,30.06,SSW,205,8.0,10.0,71,0.00,,,0.01,meteohub,2013-06-19 21:03:00,
2013-06-19 17:08:00,68.0,58.3,30.06,SSW,195,6.0,12.0,71,0.00,,,0.01,meteohub,2013-06-19 21:08:00,
2013-06-19 17:13:00,68.5,58.3,30.06,SSW,210,7.0,12.0,70,0.00,,,0.01,meteohub,2013-06-19 21:13:00,
2013-06-19 17:18:00,68.5,58.3,30.06,SSW,208,5.0,12.0,70,0.00,,,0.01,meteohub,2013-06-19 21:18:00,
2013-06-19 17:23:00,68.7,58.5,30.06,West,266,7.0,10.0,70,0.00,,,0.01,meteohub,2013-06-19 21:23:00,
2013-06-19 17:28:00,68.4,58.3,30.06,SSW,209,8.0,10.0,70,0.00,,,0.01,meteohub,2013-06-19 21:28:00,
2013-06-19 17:33:00,68.4,59.4,30.06,SSW,207,4.0,12.0,73,0.00,,,0.01,meteohub,2013-06-19 21:33:00,
2013-06-19 17:38:00,68.2,59.5,30.06,SSE,167,8.0,12.0,74,0.00,,,0.01,meteohub,2013-06-19 21:38:00,
2013-06-19 17:43:00,67.6,58.3,30.06,SSE,162,8.0,12.0,72,0.00,,,0.01,meteohub,2013-06-19 21:43:00,
2013-06-19 17:48:00,67.8,58.5,30.06,SW,217,7.0,10.0,72,0.00,,,0.01,meteohub,2013-06-19 21:48:00,
2013-06-19 17:53:00,68.4,59.4,30.06,SSW,195,6.0,11.0,73,0.00,,,0.01,meteohub,2013-06-19 21:53:00,
2013-06-19 17:58:00,68.2,58.8,30.06,SSW,195,8.0,11.0,72,0.00,,,0.01,meteohub,2013-06-19 21:58:00,
2013-06-19 18:03:00,68.2,59.2,30.06,South,184,6.0,9.0,73,0.00,,,0.01,meteohub,2013-06-19 22:03:00,
2013-06-19 18:08:00,68.0,59.4,30.06,South,187,6.0,9.0,74,0.00,,,0.01,meteohub,2013-06-19 22:08:00,
2013-06-19 18:13:00,68.0,59.7,30.07,SSW,197,6.0,8.0,75,0.00,,,0.01,meteohub,2013-06-19 22:13:00,
2013-06-19 18:18:00,68.0,59.4,30.07,SSW,198,5.0,8.0,74,0.00,,,0.01,meteohub,2013-06-19 22:18:00,
2013-06-19 18:23:00,68.0,59.7,30.07,South,181,5.0,9.0,75,0.00,,,0.01,meteohub,2013-06-19 22:23:00,
2013-06-19 18:29:00,68.2,59.9,30.07,SSW,198,5.0,9.0,75,0.00,,,0.01,meteohub,2013-06-19 22:29:00,
2013-06-19 18:34:00,68.4,59.7,30.07,South,186,6.0,9.0,74,0.00,,,0.01,meteohub,2013-06-19 22:34:00,
2013-06-19 18:39:00,68.4,59.4,30.07,SSW,207,4.0,9.0,73,0.00,,,0.01,meteohub,2013-06-19 22:39:00,
2013-06-19 18:44:00,68.4,59.4,30.08,SSW,210,6.0,8.0,73,0.00,,,0.01,meteohub,2013-06-19 22:44:00,
2013-06-19 18:49:00,68.0,59.0,30.08,SW,228,5.0,8.0,73,0.00,,,0.01,meteohub,2013-06-19 22:49:00,
2013-06-19 18:54:00,67.8,58.5,30.08,SSW,208,5.0,8.0,72,0.00,,,0.01,meteohub,2013-06-19 22:54:00,
2013-06-19 18:59:00,68.0,59.0,30.09,South,191,4.0,8.0,73,0.00,,,0.01,meteohub,2013-06-19 22:59:00,
2013-06-19 19:04:00,68.0,58.6,30.08,SSW,200,4.0,8.0,72,0.00,,,0.01,meteohub,2013-06-19 23:04:00,
2013-06-19 19:09:00,68.2,59.5,30.08,SSW,198,4.0,8.0,74,0.00,,,0.01,meteohub,2013-06-19 23:09:00,
2013-06-19 19:14:00,68.4,59.7,30.09,SSW,195,5.0,7.0,74,0.00,,,0.01,meteohub,2013-06-19 23:14:00,
2013-06-19 19:19:00,68.2,58.5,30.09,SSW,210,7.0,7.0,71,0.00,,,0.01,meteohub,2013-06-19 23:19:00,
2013-06-19 19:24:00,68.2,58.5,30.09,SSE,163,4.0,8.0,71,0.00,,,0.01,meteohub,2013-06-19 23:24:00,
2013-06-19 19:29:00,68.2,58.5,30.09,SSE,160,1.0,8.0,71,0.00,,,0.01,meteohub,2013-06-19 23:29:00,
2013-06-19 19:34:00,68.4,58.3,30.09,SSW,208,2.0,8.0,70,0.00,,,0.01,meteohub,2013-06-19 23:34:00,
2013-06-19 19:39:00,68.4,57.7,30.09,SSE,148,1.0,8.0,69,0.00,,,0.01,meteohub,2013-06-19 23:39:00,
2013-06-19 19:44:00,68.2,56.8,30.09,South,183,3.0,5.0,67,0.00,,,0.01,meteohub,2013-06-19 23:44:00,
2013-06-19 19:49:00,68.2,57.2,30.09,SE,134,1.0,5.0,68,0.00,,,0.01,meteohub,2013-06-19 23:49:00,
2013-06-19 19:54:00,67.8,57.2,30.09,SW,222,2.0,5.0,69,0.00,,,0.01,meteohub,2013-06-19 23:54:00,
2013-06-19 19:59:00,67.5,57.0,30.09,ESE,118,1.0,5.0,69,0.00,,,0.01,meteohub,2013-06-19 23:59:00,
2013-06-19 20:04:00,66.7,55.8,30.09,ESE,121,2.0,5.0,68,0.00,,,0.01,meteohub,2013-06-20 00:04:00,
2013-06-19 20:09:00,66.2,56.5,30.09,ESE,118,0.0,4.0,71,0.00,,,0.01,meteohub,2013-06-20 00:09:00,
2013-06-19 20:14:00,65.7,56.3,30.10,SW,222,1.0,4.0,72,0.00,,,0.01,meteohub,2013-06-20 00:14:00,
2013-06-19 20:19:00,65.1,56.3,30.10,WSW,248,4.0,4.0,73,0.00,,,0.01,meteohub,2013-06-20 00:19:00,
2013-06-19 20:24:00,64.9,56.8,30.11,SW,224,4.0,4.0,75,0.00,,,0.01,meteohub,2013-06-20 00:24:00,
2013-06-19 20:29:00,64.6,57.6,30.11,SW,217,5.0,6.0,78,0.00,,,0.01,meteohub,2013-06-20 00:29:00,
2013-06-19 20:34:00,64.2,58.3,30.11,SW,215,7.0,8.0,81,0.00,,,0.01,meteohub,2013-06-20 00:34:00,
2013-06-19 20:39:00,64.0,58.5,30.11,West,264,2.0,8.0,82,0.00,,,0.01,meteohub,2013-06-20 00:39:00,
2013-06-19 20:44:00,64.0,58.8,30.12,SW,218,4.0,8.0,83,0.00,,,0.01,meteohub,2013-06-20 00:44:00,
2013-06-19 20:49:00,63.9,59.0,30.12,SW,222,2.0,7.0,84,0.00,,,0.01,meteohub,2013-06-20 00:49:00,
2013-06-19 20:55:00,63.9,59.2,30.12,SSW,203,4.0,7.0,85,0.00,,,0.01,meteohub,2013-06-20 00:55:00,
2013-06-19 21:00:00,63.9,59.5,30.12,SSW,205,4.0,9.0,86,0.00,,,0.01,meteohub,2013-06-20 01:00:00,
2013-06-19 21:05:00,63.7,59.7,30.12,SW,231,6.0,9.0,87,0.00,,,0.01,meteohub,2013-06-20 01:05:00,
2013-06-19 21:10:00,63.5,59.9,30.13,SSW,212,5.0,9.0,88,0.00,,,0.01,meteohub,2013-06-20 01:10:00,
2013-06-19 21:15:00,63.5,60.3,30.13,SSW,212,3.0,8.0,89,0.00,,,0.01,meteohub,2013-06-20 01:15:00,
2013-06-19 21:20:00,63.5,60.3,30.13,SSW,197,4.0,8.0,89,0.00,,,0.01,meteohub,2013-06-20 01:20:00,
2013-06-19 21:25:00,63.5,60.4,30.13,SSW,200,7.0,8.0,90,0.00,,,0.01,meteohub,2013-06-20 01:25:00,
2013-06-19 21:30:00,63.5,60.4,30.14,SW,216,6.0,8.0,90,0.00,,,0.01,meteohub,2013-06-20 01:30:00,
2013-06-19 21:35:00,63.5,60.4,30.14,SW,229,6.0,8.0,90,0.00,,,0.01,meteohub,2013-06-20 01:35:00,
2013-06-19 21:40:00,63.5,60.4,30.14,South,170,4.0,8.0,90,0.00,,,0.01,meteohub,2013-06-20 01:40:00,
2013-06-19 21:45:00,63.1,60.1,30.14,SSE,148,4.0,8.0,90,0.00,,,0.01,meteohub,2013-06-20 01:45:00,
2013-06-19 21:50:00,63.0,59.9,30.15,South,177,4.0,8.0,90,0.00,,,0.01,meteohub,2013-06-20 01:50:00,
2013-06-19 21:55:00,62.8,59.7,30.15,South,170,3.0,8.0,90,0.00,,,0.01,meteohub,2013-06-20 01:55:00,
2013-06-19 22:00:00,62.4,59.4,30.15,SE,138,3.0,7.0,90,0.00,,,0.01,meteohub,2013-06-20 02:00:00,
2013-06-19 22:05:00,62.2,59.2,30.15,South,177,3.0,6.0,90,0.00,,,0.01,meteohub,2013-06-20 02:05:00,
2013-06-19 22:10:00,62.1,59.2,30.15,SSE,148,5.0,6.0,90,0.00,,,0.01,meteohub,2013-06-20 02:10:00,
2013-06-19 22:15:00,62.1,59.4,30.15,SSW,203,3.0,5.0,91,0.00,,,0.01,meteohub,2013-06-20 02:15:00,
2013-06-19 22:20:00,61.9,59.2,30.15,SE,136,3.0,6.0,91,0.00,,,0.01,meteohub,2013-06-20 02:20:00,
2013-06-19 22:25:00,61.7,59.4,30.15,SSE,155,1.0,6.0,92,0.00,,,0.01,meteohub,2013-06-20 02:25:00,
2013-06-19 22:30:00,61.5,58.8,30.15,SE,136,2.0,6.0,91,0.00,,,0.01,meteohub,2013-06-20 02:30:00,
2013-06-19 22:35:00,61.3,58.6,30.15,SE,145,1.0,6.0,91,0.00,,,0.01,meteohub,2013-06-20 02:35:00,
2013-06-19 22:40:00,61.2,58.8,30.15,SSE,155,3.0,6.0,92,0.00,,,0.01,meteohub,2013-06-20 02:40:00,
2013-06-19 22:45:00,61.2,58.8,30.16,South,169,2.0,6.0,92,0.00,,,0.01,meteohub,2013-06-20 02:45:00,
2013-06-19 22:50:00,61.0,58.6,30.16,ESE,119,1.0,5.0,92,0.00,,,0.01,meteohub,2013-06-20 02:50:00,
2013-06-19 22:55:00,60.6,58.6,30.16,SSE,153,3.0,5.0,93,0.00,,,0.01,meteohub,2013-06-20 02:55:00,
2013-06-19 23:00:00,60.6,58.8,30.16,South,188,5.0,5.0,94,0.00,,,0.01,meteohub,2013-06-20 03:00:00,
2013-06-19 23:05:00,61.2,59.7,30.16,SSW,195,5.0,5.0,95,0.00,,,0.01,meteohub,2013-06-20 03:05:00,
2013-06-19 23:10:00,61.5,59.7,30.16,SSW,203,4.0,6.0,94,0.00,,,0.01,meteohub,2013-06-20 03:10:00,
2013-06-19 23:15:00,61.7,59.7,30.17,South,186,4.0,7.0,93,0.00,,,0.01,meteohub,2013-06-20 03:15:00,
2013-06-19 23:20:00,62.1,60.1,30.16,South,188,5.0,7.0,93,0.00,,,0.01,meteohub,2013-06-20 03:20:00,
2013-06-19 23:25:00,61.9,59.2,30.17,SE,145,3.0,7.0,91,0.00,,,0.01,meteohub,2013-06-20 03:25:00,
2013-06-19 23:30:00,61.3,59.0,30.17,SSE,160,4.0,7.0,92,0.00,,,0.01,meteohub,2013-06-20 03:30:00,
2013-06-19 23:35:00,61.2,59.2,30.17,SSE,167,4.0,7.0,93,0.00,,,0.01,meteohub,2013-06-20 03:35:00,
2013-06-19 23:40:00,61.2,59.2,30.17,SE,145,2.0,5.0,93,0.00,,,0.01,meteohub,2013-06-20 03:40:00,
2013-06-19 23:45:00,61.2,59.2,30.17,SSE,167,3.0,5.0,93,0.00,,,0.01,meteohub,2013-06-20 03:45:00,
2013-06-19 23:50:00,61.0,59.0,30.17,SSE,165,3.0,6.0,93,0.00,,,0.01,meteohub,2013-06-20 03:50:00,
2013-06-19 23:56:00,61.3,59.5,30.17,SSW,205,2.0,6.0,94,0.00,,,0.01,meteohub,2013-06-20 03:56:00,